TimeCST,TemperatureF,Dew PointF,Humidity,Sea Level PressureIn,VisibilityMPH,Wind Direction,Wind SpeedMPH,Gust SpeedMPH,PrecipitationIn,Events,Conditions,WindDirDegrees,DateUTC
12:35 AM,42.1,34.3,74,29.29,10.0,South,9.2,-,N/A,,Clear,180,2011-11-13 06:35:00
12:55 AM,42.1,34.2,74,29.28,10.0,South,6.9,-,N/A,,Clear,180,2011-11-13 06:55:00
1:15 AM,42.1,34.2,74,29.27,10.0,South,8.1,-,N/A,,Clear,180,2011-11-13 07:15:00
1:35 AM,41.9,34.2,74,29.26,10.0,South,9.2,-,N/A,,Clear,170,2011-11-13 07:35:00
1:55 AM,41.4,34.2,76,29.25,10.0,South,10.4,-,N/A,,Clear,170,2011-11-13 07:55:00
2:15 AM,40.8,34.0,77,29.24,10.0,South,6.9,-,N/A,,Clear,180,2011-11-13 08:15:00
2:35 AM,40.5,34.0,78,29.23,10.0,South,9.2,-,N/A,,Clear,180,2011-11-13 08:35:00
2:55 AM,40.3,34.0,78,29.23,10.0,South,6.9,-,N/A,,Clear,180,2011-11-13 08:55:00
3:15 AM,39.7,33.8,79,29.23,10.0,South,5.8,-,N/A,,Clear,190,2011-11-13 09:15:00
3:35 AM,39.6,33.8,80,29.23,10.0,South,8.1,-,N/A,,Clear,190,2011-11-13 09:35:00
3:55 AM,39.4,33.8,80,29.22,10.0,South,8.1,-,N/A,,Clear,190,2011-11-13 09:55:00
4:15 AM,39.2,33.8,81,29.22,10.0,South,8.1,-,N/A,,Clear,190,2011-11-13 10:15:00
4:35 AM,39.2,33.8,81,29.22,10.0,South,8.1,-,N/A,,Clear,190,2011-11-13 10:35:00
4:55 AM,39.4,34.0,81,29.21,10.0,South,8.1,-,N/A,,Clear,190,2011-11-13 10:55:00
5:15 AM,39.7,34.2,80,29.21,10.0,South,9.2,-,N/A,,Clear,190,2011-11-13 11:15:00
5:35 AM,39.6,34.2,81,29.20,10.0,South,8.1,-,N/A,,Clear,190,2011-11-13 11:35:00
5:55 AM,39.6,34.3,82,29.20,10.0,South,5.8,-,N/A,,Clear,190,2011-11-13 11:55:00
6:15 AM,39.4,34.3,82,29.22,10.0,SSW,6.9,-,N/A,,Scattered Clouds,210,2011-11-13 12:15:00
6:35 AM,39.4,34.5,83,29.20,10.0,SSW,6.9,-,N/A,,Mostly Cloudy,200,2011-11-13 12:35:00
6:55 AM,39.2,34.3,83,29.21,10.0,South,4.6,-,N/A,,Scattered Clouds,190,2011-11-13 12:55:00
7:15 AM,39.0,34.5,84,29.21,10.0,South,5.8,-,N/A,,Clear,180,2011-11-13 13:15:00
7:35 AM,39.2,34.7,84,29.20,10.0,South,4.6,-,N/A,,Mostly Cloudy,190,2011-11-13 13:35:00
7:55 AM,39.6,34.9,83,29.21,10.0,SSW,4.6,-,N/A,,Overcast,200,2011-11-13 13:55:00
8:35 AM,40.1,35.1,82,29.22,10.0,SSW,5.8,-,N/A,,Mostly Cloudy,210,2011-11-13 14:35:00
8:55 AM,40.5,35.4,82,29.21,10.0,South,4.6,-,N/A,,Overcast,190,2011-11-13 14:55:00
9:15 AM,41.0,35.6,81,29.21,10.0,WSW,3.5,-,N/A,,Overcast,240,2011-11-13 15:15:00
9:35 AM,41.5,35.6,79,29.21,10.0,SSW,5.8,-,N/A,,Mostly Cloudy,210,2011-11-13 15:35:00
9:55 AM,41.9,35.6,78,29.23,10.0,SW,8.1,-,N/A,,Mostly Cloudy,230,2011-11-13 15:55:00
10:15 AM,42.3,35.6,77,29.23,10.0,SW,4.6,-,N/A,,Mostly Cloudy,230,2011-11-13 16:15:00
10:35 AM,44.1,35.6,72,29.21,10.0,SW,8.1,-,N/A,,Clear,230,2011-11-13 16:35:00
10:55 AM,45.5,35.6,68,29.21,10.0,SW,10.4,-,N/A,,Clear,230,2011-11-13 16:55:00
11:15 AM,46.0,35.1,66,29.22,10.0,WSW,12.7,-,N/A,,Scattered Clouds,240,2011-11-13 17:15:00
11:35 AM,46.6,35.4,65,29.22,10.0,WSW,8.1,-,N/A,,Scattered Clouds,250,2011-11-13 17:35:00
11:55 AM,46.6,35.2,65,29.21,10.0,SW,5.8,-,N/A,,Scattered Clouds,220,2011-11-13 17:55:00
12:15 PM,46.9,35.1,63,29.19,10.0,SSW,3.5,-,N/A,,Mostly Cloudy,200,2011-11-13 18:15:00
12:35 PM,47.1,35.1,63,29.19,10.0,South,5.8,-,N/A,Rain,Light Rain,180,2011-11-13 18:35:00
12:55 PM,47.3,35.1,62,29.18,10.0,South,5.8,-,N/A,,Mostly Cloudy,170,2011-11-13 18:55:00
1:15 PM,46.9,35.4,64,29.18,10.0,South,5.8,-,N/A,,Drizzle,180,2011-11-13 19:15:00
1:35 PM,45.9,36.3,69,29.18,10.0,West,5.8,-,N/A,,Overcast,280,2011-11-13 19:35:00
1:55 PM,45.5,36.7,71,29.18,10.0,SW,5.8,-,N/A,,Overcast,230,2011-11-13 19:55:00
2:15 PM,45.1,36.5,72,29.19,10.0,South,4.6,-,N/A,,Overcast,190,2011-11-13 20:15:00
2:35 PM,45.0,36.7,73,29.19,10.0,SSW,5.8,-,N/A,,Overcast,210,2011-11-13 20:35:00
2:55 PM,45.0,36.7,73,29.20,10.0,SW,8.1,-,N/A,,Overcast,230,2011-11-13 20:55:00
3:15 PM,44.6,36.7,74,29.22,10.0,SW,5.8,-,N/A,,Overcast,220,2011-11-13 21:15:00
3:35 PM,44.2,36.9,75,29.22,10.0,SW,6.9,-,N/A,,Overcast,230,2011-11-13 21:35:00
3:55 PM,43.9,37.0,77,29.23,10.0,SW,6.9,-,N/A,,Overcast,230,2011-11-13 21:55:00
4:15 PM,43.7,37.0,77,29.23,10.0,WSW,4.6,-,N/A,,Overcast,240,2011-11-13 22:15:00
4:35 PM,43.2,36.9,78,29.24,10.0,SW,4.6,-,N/A,,Overcast,230,2011-11-13 22:35:00
4:55 PM,42.6,36.7,79,29.24,10.0,WSW,4.6,-,N/A,,Overcast,240,2011-11-13 22:55:00
5:15 PM,42.4,36.7,80,29.25,10.0,SW,3.5,-,N/A,,Overcast,230,2011-11-13 23:15:00
5:35 PM,42.1,36.3,80,29.26,10.0,WSW,5.8,-,N/A,,Overcast,240,2011-11-13 23:35:00
5:55 PM,41.2,36.0,82,29.27,10.0,WSW,6.9,-,N/A,,Overcast,240,2011-11-13 23:55:00
6:15 PM,41.5,35.2,78,29.28,10.0,WSW,8.1,-,N/A,,Mostly Cloudy,250,2011-11-14 00:15:00
6:35 PM,41.9,34.0,73,29.28,10.0,WSW,6.9,-,N/A,,Clear,250,2011-11-14 00:35:00
6:55 PM,41.7,33.4,72,29.29,10.0,WSW,9.2,-,N/A,,Mostly Cloudy,250,2011-11-14 00:55:00
7:15 PM,41.9,33.3,71,29.29,10.0,WSW,8.1,-,N/A,,Mostly Cloudy,250,2011-11-14 01:15:00
7:35 PM,41.0,32.9,73,29.30,10.0,WSW,9.2,-,N/A,,Scattered Clouds,250,2011-11-14 01:35:00
7:55 PM,40.3,32.9,75,29.30,10.0,WSW,9.2,-,N/A,,Scattered Clouds,240,2011-11-14 01:55:00
8:15 PM,40.6,33.1,74,29.31,10.0,WSW,9.2,-,N/A,,Overcast,240,2011-11-14 02:15:00
8:55 PM,41.2,32.4,71,29.32,10.0,West,10.4,-,N/A,,Scattered Clouds,260,2011-11-14 02:55:00
9:15 PM,40.6,32.0,71,29.33,10.0,WSW,9.2,-,N/A,,Scattered Clouds,250,2011-11-14 03:15:00
9:35 PM,41.0,32.0,70,29.34,10.0,West,5.8,-,N/A,,Overcast,260,2011-11-14 03:35:00
9:55 PM,40.8,32.0,71,29.35,10.0,WSW,8.1,-,N/A,,Overcast,250,2011-11-14 03:55:00
10:15 PM,40.8,32.0,71,29.36,10.0,WSW,6.9,-,N/A,,Overcast,240,2011-11-14 04:15:00
10:35 PM,40.8,31.6,70,29.37,10.0,WSW,9.2,-,N/A,,Overcast,250,2011-11-14 04:35:00
10:55 PM,41.0,31.5,69,29.38,10.0,West,12.7,19.6,N/A,,Overcast,260,2011-11-14 04:55:00
11:15 PM,40.6,31.1,69,29.39,10.0,West,9.2,-,N/A,,Overcast,260,2011-11-14 05:15:00
11:35 PM,40.1,30.9,70,29.40,10.0,West,16.1,21.9,N/A,,Overcast,270,2011-11-14 05:35:00
11:55 PM,39.0,30.2,71,29.41,10.0,West,10.4,-,N/A,,Mostly Cloudy,270,2011-11-14 05:55:00